User: anonymous   Login
Location: Unspecified
(0.0000°N, 0.0000°E)
Time: 19:13:09
(UTC+01:00)
Language:

Cosmos 407 Rocket - Orbit

View from above orbital plane
View from above orbital plane
View from above satellite
View from above satellite

Ground track
Ground track

The orbit data is extracted from the following two-line orbital elements,

1 05175U 71035B   14302.79458748  .00000237  00000-0  87558-4 0  5474
2 05175 074.0482 177.8314 0031127 265.2711 094.4887 14.37536366276788
Epoch (UTC): 29 October 2014 19:04:12
Eccentricity: 0.0031127
inclination: 74.0482°
perigee height: 744 km
apogee height: 789 km
right ascension of ascending node: 177.8314°
argument of perigee: 265.2711°
revolutions per day: 14.37536366
mean anomaly at epoch: 94.4887°
orbit number at epoch: 27678

The dashed part of the orbit path shows where the satellite is in the earth's shadow,  

DLR